When you browse on this site, cookies collect data to enhance your experience and personalize the content and advertising you see.
Visit our Privacy Policy to learn more. By continuing to use the site, you agree to this use of cookies and data.
  • In Portugal
  • List of Countries
  • For 7 days
  • Water Temperature
  • Weather Map
  • Weather Widgets
  • user-avatar
    Login

    Hourly Weather Hobart

    Today, 1 June, Monday

    Time Temperature Precipitation Wind Pressure Humidity
    00:00 +6°C° 0 mm 2 mps 738 mmHg 79%
    01:00 +6°C° 0 mm 2 mps 737 mmHg 78%
    02:00 +6°C° 0 mm 2 mps 737 mmHg 78%
    03:00 +7°C° 0 mm 2 mps 737 mmHg 78%
    04:00 +7°C° 0 mm 2 mps 737 mmHg 77%
    05:00 +6°C° 0 mm 2 mps 737 mmHg 80%
    06:00 +6°C° 0 mm 2 mps 737 mmHg 83%
    07:00 +6°C° 0 mm 2 mps 737 mmHg 87%
    08:00 +7°C° 0 mm 2 mps 737 mmHg 80%
    09:00 +9°C° 0 mm 2 mps 737 mmHg 73%
    10:00 +12°C° 0 mm 2 mps 738 mmHg 65%
    11:00 +13°C° 0 mm 2 mps 738 mmHg 61%
    12:00 +14°C° 0 mm 1 mps 737 mmHg 58%
    13:00 +15°C° 0 mm 1 mps 737 mmHg 54%
    14:00 +14°C° 0 mm 2 mps 738 mmHg 60%
    15:00 +14°C° 0 mm 2 mps 739 mmHg 65%
    16:00 +13°C° 0 mm 2 mps 739 mmHg 71%
    17:00 +12°C° 0 mm 2 mps 740 mmHg 77%
    18:00 +10°C° 0 mm 2 mps 740 mmHg 83%
    19:00 +9°C° 0 mm 2 mps 741 mmHg 89%
    20:00 +8°C° 0 mm 2 mps 742 mmHg 90%
    21:00 +8°C° 0 mm 2 mps 742 mmHg 91%
    22:00 +7°C° 0 mm 2 mps 743 mmHg 91%
    23:00 +7°C° 0 mm 2 mps 743 mmHg 88%

    Tomorrow, 2 June, Tuesday

    Time Temperature Precipitation Wind Pressure Humidity
    00:00 +5°C° 0 mm 3 mps 742 mmHg 84%
    01:00 +4°C° 0 mm 3 mps 742 mmHg 81%
    02:00 +4°C° 0 mm 3 mps 742 mmHg 81%
    03:00 +5°C° 0 mm 3 mps 742 mmHg 82%
    04:00 +5°C° 0 mm 3 mps 742 mmHg 83%
    05:00 +5°C° 0 mm 3 mps 742 mmHg 84%
    06:00 +7°C° 0 mm 3 mps 743 mmHg 85%
    07:00 +7°C° 0 mm 3 mps 743 mmHg 87%
    08:00 +8°C° 0 mm 3 mps 743 mmHg 81%
    09:00 +10°C° 0 mm 3 mps 743 mmHg 75%
    10:00 +11°C° 0 mm 4 mps 743 mmHg 69%
    11:00 +11°C° 0 mm 4 mps 743 mmHg 70%
    12:00 +12°C° 0 mm 4 mps 742 mmHg 71%
    13:00 +12°C° 0 mm 5 mps 741 mmHg 71%
    14:00 +12°C° 0 mm 5 mps 741 mmHg 72%
    15:00 +10°C° 0 mm 5 mps 741 mmHg 73%
    16:00 +11°C° 0 mm 4 mps 741 mmHg 75%
    17:00 +11°C° 0.1 mm 4 mps 742 mmHg 74%
    18:00 +10°C° 0.1 mm 4 mps 742 mmHg 73%
    19:00 +10°C° 0.1 mm 4 mps 742 mmHg 71%
    20:00 +8°C° 0 mm 4 mps 743 mmHg 74%
    21:00 +7°C° 0 mm 4 mps 744 mmHg 77%
    22:00 +7°C° 0 mm 4 mps 744 mmHg 79%
    23:00 +6°C° 0 mm 4 mps 745 mmHg 78%

    Day after tomorrow, 3 June, Wednesday

    Time Temperature Precipitation Wind Pressure Humidity
    00:00 +6°C° 0 mm 4 mps 745 mmHg 77%
    01:00 +6°C° 0 mm 5 mps 746 mmHg 76%
    02:00 +6°C° 0 mm 5 mps 747 mmHg 77%
    03:00 +5°C° 0 mm 6 mps 748 mmHg 78%
    04:00 +5°C° 0 mm 6 mps 749 mmHg 79%
    05:00 +4°C° 0 mm 6 mps 750 mmHg 79%
    06:00 +5°C° 0 mm 5 mps 751 mmHg 79%
    07:00 +3°C° 0 mm 5 mps 752 mmHg 80%
    08:00 +5°C° 0 mm 5 mps 753 mmHg 74%
    09:00 +6°C° 0 mm 5 mps 754 mmHg 68%
    10:00 +7°C° 0 mm 5 mps 755 mmHg 63%
    11:00 +7°C° 0 mm 5 mps 756 mmHg 60%
    12:00 +7°C° 0 mm 4 mps 756 mmHg 58%
    13:00 +8°C° 0 mm 4 mps 756 mmHg 55%
    14:00 +7°C° 0 mm 4 mps 757 mmHg 57%
    15:00 +8°C° 0 mm 3 mps 757 mmHg 59%
    16:00 +8°C° 0 mm 3 mps 757 mmHg 61%
    17:00 +6°C° 0 mm 2 mps 758 mmHg 66%
    18:00 +5°C° 0 mm 2 mps 758 mmHg 71%
    19:00 +4°C° 0 mm 2 mps 759 mmHg 76%
    20:00 +4°C° 0 mm 2 mps 759 mmHg 79%
    21:00 +3°C° 0 mm 2 mps 759 mmHg 81%
    22:00 +3°C° 0 mm 2 mps 760 mmHg 83%
    23:00 +3°C° 0 mm 2 mps 760 mmHg 84%

    4 June, Thursday

    Time Temperature Precipitation Wind Pressure Humidity
    00:00 +2°C° 0 mm 2 mps 759 mmHg 86%
    01:00 +2°C° 0 mm 2 mps 759 mmHg 87%
    02:00 +2°C° 0 mm 2 mps 759 mmHg 88%
    03:00 +2°C° 0 mm 2 mps 759 mmHg 89%
    04:00 +2°C° 0 mm 2 mps 759 mmHg 89%
    05:00 +2°C° 0 mm 2 mps 759 mmHg 90%
    06:00 +2°C° 0 mm 2 mps 759 mmHg 90%
    07:00 +2°C° 0 mm 2 mps 759 mmHg 90%
    08:00 +3°C° 0 mm 2 mps 759 mmHg 83%
    09:00 +5°C° 0 mm 2 mps 759 mmHg 76%
    10:00 +6°C° 0 mm 2 mps 759 mmHg 69%
    11:00 +8°C° 0 mm 2 mps 758 mmHg 62%
    12:00 +11°C° 0 mm 1 mps 758 mmHg 56%
    13:00 +12°C° 0 mm 1 mps 757 mmHg 50%
    14:00 +12°C° 0 mm 1 mps 757 mmHg 54%
    15:00 +11°C° 0 mm 1 mps 757 mmHg 58%
    16:00 +10°C° 0 mm 1 mps 757 mmHg 62%
    17:00 +9°C° 0 mm 1 mps 757 mmHg 68%
    18:00 +7°C° 0 mm 1 mps 757 mmHg 75%
    19:00 +5°C° 0 mm 2 mps 757 mmHg 82%
    20:00 +5°C° 0 mm 2 mps 757 mmHg 84%
    21:00 +4°C° 0 mm 2 mps 756 mmHg 87%
    22:00 +4°C° 0 mm 2 mps 756 mmHg 89%
    23:00 +4°C° 0 mm 2 mps 756 mmHg 90%

    5 June, Friday

    Time Temperature Precipitation Wind Pressure Humidity
    00:00 +4°C° 0 mm 2 mps 756 mmHg 90%
    01:00 +4°C° 0 mm 2 mps 755 mmHg 91%
    02:00 +4°C° 0 mm 2 mps 755 mmHg 89%
    03:00 +5°C° 0 mm 2 mps 755 mmHg 87%
    04:00 +5°C° 0 mm 2 mps 754 mmHg 85%
    05:00 +5°C° 0 mm 2 mps 754 mmHg 85%
    06:00 +6°C° 0 mm 2 mps 754 mmHg 85%
    07:00 +6°C° 0 mm 2 mps 755 mmHg 85%
    08:00 +7°C° 0 mm 2 mps 755 mmHg 82%
    09:00 +8°C° 0 mm 2 mps 754 mmHg 80%
    10:00 +9°C° 0 mm 3 mps 754 mmHg 77%
    11:00 +9°C° 0 mm 2 mps 754 mmHg 75%
    12:00 +10°C° 0 mm 2 mps 754 mmHg 72%
    13:00 +12°C° 0 mm 2 mps 753 mmHg 69%
    14:00 +10°C° 0 mm 2 mps 753 mmHg 73%
    15:00 +10°C° 0 mm 2 mps 753 mmHg 76%
    16:00 +10°C° 0 mm 1 mps 752 mmHg 79%
    17:00 +10°C° 0 mm 1 mps 753 mmHg 81%
    18:00 +10°C° 0 mm 1 mps 753 mmHg 83%
    19:00 +9°C° 0 mm 1 mps 753 mmHg 86%
    20:00 +9°C° 0 mm 1 mps 753 mmHg 87%
    21:00 +9°C° 0 mm 1 mps 753 mmHg 88%
    22:00 +7°C° 0 mm 2 mps 752 mmHg 89%
    23:00 +7°C° 0 mm 2 mps 752 mmHg 89%

    6 June, Saturday

    Time Temperature Precipitation Wind Pressure Humidity
    00:00 +7°C° 0 mm 2 mps 752 mmHg 89%
    01:00 +8°C° 0 mm 2 mps 752 mmHg 89%
    02:00 +7°C° 0.1 mm 2 mps 751 mmHg 90%
    03:00 +7°C° 0.1 mm 2 mps 751 mmHg 91%
    04:00 +7°C° 0.1 mm 2 mps 751 mmHg 92%
    05:00 +7°C° 0 mm 2 mps 751 mmHg 92%
    06:00 +8°C° 0 mm 1 mps 751 mmHg 91%
    07:00 +9°C° 0 mm 1 mps 751 mmHg 91%
    08:00 +9°C° 0.1 mm 1 mps 751 mmHg 89%
    09:00 +9°C° 0.1 mm 2 mps 751 mmHg 87%
    10:00 +9°C° 0.1 mm 2 mps 751 mmHg 85%
    11:00 +10°C° 0.2 mm 2 mps 751 mmHg 83%
    12:00 +10°C° 0.2 mm 3 mps 750 mmHg 81%
    13:00 +11°C° 0.2 mm 3 mps 750 mmHg 79%
    14:00 +10°C° 0.1 mm 3 mps 750 mmHg 81%
    15:00 +9°C° 0.1 mm 3 mps 750 mmHg 83%
    16:00 +7°C° 0.1 mm 4 mps 750 mmHg 86%
    17:00 +8°C° 0 mm 3 mps 751 mmHg 86%
    18:00 +7°C° 0 mm 3 mps 751 mmHg 86%
    19:00 +5°C° 0 mm 3 mps 751 mmHg 87%
    20:00 +4°C° 0 mm 3 mps 752 mmHg 86%
    21:00 +4°C° 0 mm 3 mps 752 mmHg 86%
    22:00 +3°C° 0 mm 3 mps 752 mmHg 85%
    23:00 +3°C° 0 mm 3 mps 752 mmHg 86%
    Show more